sat.trackr.live / text

‹ back to catalog

STARLINK-32896

NORAD 62959 · 2025-029M

PAYLOAD ACTIVE UNKNOWN

§ Identity

Operator
Country
US
Launch date
2025-02-11
Launch site
AFWTR
Launch vehicle
Mass (kg)
RCS (m²)

Purposes: comms

External: N2YO · Heavens-Above · Gunter

§ Orbital elements

Epoch: 2026-05-24T23:34:59.441088Z

Period
94.10 min
Inclination
53.1593°
Eccentricity
0.0001173
Mean motion
15.30206235 rev/d
Perigee alt
474.4 km
Apogee alt
476.0 km
Semi-major
6,853.3 km
B*
7.2673e-4
RAAN
238.4202°
Arg perigee
81.9906°
Mean anomaly
278.1227°
Rev number
7,299

§ Raw data

STARLINK-328961 62959U 25029M   26144.98263242  .00021230  00000+0  72673-3 0  99972 62959  53.1593 238.4202 0001173  81.9906 278.1227 15.30206235 72998

JSON: /api/v1/satellites/62959 · /tle

For live sub-satellite position, see the globe view (requires WebGL).

§ Visibility from observer

Set your observer location to see the next 7 days of passes ≥ 10°. The values pass through the URL so the page stays shareable.

No JS? Fill the form by hand. The geolocation button needs JavaScript.